Location: Casilda
(33.0440°S, 61.1680°W)
Time: 18:39:29
(UTC-03:00)

ISS - Pass Details

Date: 27 November 2021
Orbit: 417 x 423 km, 51.6° (Epoch: 28 November)

Event Time Altitude Azimuth Distance (km) Brightness Sun altitude
Exits shadow 02:54:41 11° 98° (E) 1,458 -0.6 -28.4°
Drops below altitude 10° 02:54:52 10° 100° (E) 1,510 -0.5 -28.4°
Sets 02:57:22 0° 118° (ESE) 2,384 1.0 -28.1°
